Regional Weather Roundup
Issued by NWS

Home | Current Version | Previous Version | Text Only | Print | Product List | Glossary Off
Versions: 1 2 3 4 5 6 7 8 9 10 11 12 13 14 15 16 17 18 19 20 21 22 23 24 25 26 27 28 29 30 31 32 33 34 35 36 37 38 39 40 41 42 43 44 45 46 47 48 49 50

000
ASUS43 KLSX 290459
RWRMO

WEATHER SUMMARY FOR MISSOURI
NATIONAL WEATHER SERVICE SPRINGFIELD MO
1200 AM CDT FRI MAY 29 2015

NOTE: "FAIR" INDICATES FEW OR NO CLOUDS BELOW 12,000 FEET WITH NO
       SIGNIFICANT WEATHER AND/OR OBSTRUCTIONS TO VISIBILITY.
       CURRENT SKY AND/OR WEATHER CONDITIONS ARE NOT AVAILABLE FOR
       CHILLICOTHE AND FARMINGTON.

MOZ001>031-035>038-043-044-053-054-290600-
...NORTHERN AND WESTERN MISSOURI...

CITY           SKY/WX    TMP DP  RH WIND       PRES   REMARKS
KANSAS CTY INT MOCLDY    64  63  96 S7        30.00R
KANSAS C DTWN  MOCLDY    68  63  84 CALM      29.99F
LEE`S SUMMIT   MOCLDY    66  63  90 SE6       30.00F
ST JOSEPH      MOCLDY    67  65  93 S8        29.98F
CHILLICOTHE      N/A     67  65  93 S5        30.02S

$$
MOZ066>068-077>081-088>096-101>105-290600-
...SOUTHWEST MISSOURI...

CITY           SKY/WX    TMP DP  RH WIND       PRES   REMARKS
SPRINGFIELD    MOCLDY    68  64  87 S10       30.04S
JOPLIN         MOCLDY    68  66  93 S6        30.02F

$$
MOZ032>034-039>042-045>050-055>058-069>072-290600-
...CENTRAL MISSOURI...

CITY           SKY/WX    TMP DP  RH WIND       PRES   REMARKS
COLUMBIA       LGT RAIN  67  65  93 E6        30.02S
JEFFERSON CITY CLOUDY    68  65  90 E5        30.01S
ROLLA          CLOUDY    68  66  93 S8        30.03R
SEDALIA        CLOUDY    67  64  90 CALM      30.02F
OSAGE BEACH    CLOUDY    66  63  88 S3        30.02S

$$
MOZ051-052-059>065-290600-
...EAST CENTRAL MISSOURI...

CITY           SKY/WX    TMP DP  RH WIND       PRES   REMARKS
ST LOUIS INTL  PTCLDY    75  64  68 S9G16     30.05S
SPIRIT OF STL  PTCLDY   N/A N/A N/A CALM      30.03R
ST CHARLES     PTCLDY    70  64  81 SE3       30.03S

$$
MOZ072>076-082>087-097>100-106>115-290600-
...SOUTH CENTRAL AND SOUTHEAST MISSOURI...

CITY           SKY/WX    TMP DP  RH WIND       PRES   REMARKS
CAPE GIRARDEAU CLEAR     69  66  90 SE7       30.07S
FARMINGTON     MOCLDY    70  64  83 SE7       30.11S
POPLAR BLUFF   CLOUDY    73  67  81 S8        30.06R
WEST PLAINS    CLOUDY    69  61  75 S6        30.09S

$$


USA.gov is the U.S. government's official web portal to all federal, state and local government web resources and services.